Tracking 19145 objects as of 25-Apr-2018
HD Live streaming from Space Station
objects crossing your sky now

FENGYUN 1C DEB

Track FENGYUN 1C DEB now!
10-day predictions


NORAD ID: 30504
Int'l Code: 1999-025AHS
Perigee: 763.6 km
Apogee: 932.9 km
Inclination: 99.0 °
Period: 101.7 minutes
Semi major axis: 7219 km
RCS: 0.0107 m2 (small)
Launch date: May 10, 1999
Source: People's Republic of China (PRC)
Launch site: Taiyaun Space Center, China (TSC)

Note: This is SATELLITE DEBRIS
aabbcc
Your satellite tracking list
Your tracking list is empty




NASA's NSSDC Master Catalog

Two Line Element Set (TLE):
1 30504U 99025AHS 18114.81580782 +.00000329 +00000-0 +17998-3 0  9992
2 30504 098.9622 071.9785 0117239 207.6603 182.5073 14.15353093579016
Source of the keplerian elements: AFSPC